Regional Weather Roundup
Issued by NWS

Home | Current Version | Previous Version | Text Only | Print | Product List | Glossary On
Versions: 1 2 3 4 5 6 7 8 9 10 11 12 13 14 15 16 17 18 19 20 21 22 23 24 25 26 27 28 29 30 31 32 33 34 35 36 37 38 39 40 41 42 43 44 45 46 47 48 49 50
000
ASCA44 KEWX 311320
RWRMX

LATIN AMERICA AND CARIBBEAN REGIONAL WEATHER ROUNDUP
NATIONAL WEATHER SERVICE AUSTIN/SAN ANTONIO TX
800 AM CDT THU JUL 31 2014

NOTE: "FAIR" INDICATED FEW OR NO CLOUDS BELOW 12,000 FEET WITH NO
SIGNIFICANT WEATHER AND/OR OBSTRUCTIONS TO VISIBILITY.

BAJA CALIFORNIA

CITY           SKY/WX    TMP DP  RH WIND       PRES   REMARKS
LORETO         DRIZZLE   86  81  84 E7        29.88  HX 102
TIJUANA        FOG       68  64  88 CALM      29.95S VSB 1

NORTHWESTERN MEXICO

CITY           SKY/WX    TMP DP  RH WIND       PRES   REMARKS
DURANGO        MOCLDY    59  54  82 CALM      30.30R
CD. JUAREZ     MOCLDY    73  54  49 CALM      30.16

NORTHEASTERN MEXICO

CITY           SKY/WX    TMP DP  RH WIND       PRES   REMARKS
CHIHUAHUA      MOCLDY    66  59  77 CALM      30.23
MATAMOROS      MOSUNNY   79  77  94 SE9       29.95S
MONTERREY      SUNNY     75  66  73 CALM      29.93R
NUEVO LAREDO   SUNNY     81  73  78 S9        29.90R
PIEDRAS NEGRAS MOSUNNY   79  72  78 SE6       29.94
REYNOSA        SUNNY     79  72  78 S14       29.91R
SALTILLO       CLEAR     75  57  53 SE9       30.17R
TORREON        CLEAR     73  50  43 CALM      30.08R
CD. VICTORIA   SUNNY     77  70  78 SE16      29.93S

WESTERN MEXICO

CITY           SKY/WX    TMP DP  RH WIND       PRES   REMARKS
AGUASCALIENTES PTCLDY    57  54  88 N6        30.31R
COLIMA         CLOUDY    72  66  83 CALM      30.07R
DEL BAJIO      MOCLDY    63  61  94 CALM      30.31S
GUADALAJARA    RAIN      61  57  88 E15G26    30.25R
MANZANILLO     CLOUDY    79  77  94 N7        29.87
MAZATLAN       CLOUDY    79  72  78 SE9       29.91R THUNDER
P. VALLARTA    CLOUDY    81  73  78 NE5       29.92S
URUAPAN        CLOUDY    64  63  94 CALM      30.23R
ZACATECAS      MOCLDY    52  45  76 SE6       30.35R

CENTRAL MEXICO

CITY           SKY/WX    TMP DP  RH WIND       PRES   REMARKS
CUERNAVACA     PTCLDY    66  55  68 NW3       30.19R
MEXICO CITY    MOCLDY    57  50  77 NE6       30.38S
MORELIA        MOCLDY    59  57  94 CALM      30.26F
POZA RICA      MOSUNNY   75  75 100 N5        29.99R FOG
PUEBLA         MOSUNNY   48  45  87 N6        30.40R WCI  46
QUERETARO      PTCLDY    55  52  88 CALM      30.33F
S. LUIS POTOSI FOG       57  55  94 CALM      30.29R VSB 1/4
TAMPICO        MOSUNNY   81  75  83 W5        29.95S
TOLUCA         FOG       52  48  87 NE5       30.45R VSB 1

SOUTHERN MEXICO

CITY           SKY/WX    TMP DP  RH WIND       PRES   REMARKS
ACAPULCO       PTCLDY    81  75  83 CALM      29.89R
B. DE HUATULCO SUNNY     75  70  83 CALM      29.92R
OAXACA         SUNNY     57  52  82 N9        30.28R
P. ESCONDIDO   MOSUNNY   73  68  83 E14       30.00S
VERACRUZ       MOSUNNY   75  73  94 NW3       29.96R
ZIHUATANEJO    MOCLDY    77  72  83 CALM      29.91R

YUCATAN PENINSULA

CITY           SKY/WX    TMP DP  RH WIND       PRES   REMARKS
CAMPECHE       SUNNY     77  73  88 E7        29.95S
CANCUN         SUNNY     77  75  94 N3        29.99R
CHETUMAL       MOSUNNY   79  72  78 CALM      29.97R
CD. DEL CARMEN MOSUNNY   82  75  78 SE7       29.94S
COZUMEL        MOSUNNY   77  75  94 CALM      29.99R
MERIDA         SUNNY     79  72  78 SE7       29.98R
MINATITLAN     PTSUNNY   82  68  61 N7        29.94R
TAPACHULA      PTSUNNY   75  70  83 CALM      29.89R
TUX. GUTIERREZ MOSUNNY   70  68  94 CALM      30.02R FOG
VILLAHERMOSA   MOSUNNY   77  73  88 CALM      29.96R

CENTRAL AMERICA

CITY           SKY/WX    TMP DP  RH WIND       PRES   REMARKS
BELIZE CITY    MOSUNNY   77  77 100 NW3       29.97R
MANAGUA        MOSUNNY   81  72  74 E9        29.86S

CARIBBEAN

CITY           SKY/WX    TMP DP  RH WIND       PRES   REMARKS
ARUBA          MOSUNNY   86  77  74 E23       29.89S HX  97
CURACAO        MOSUNNY   86  75  70 SE15      29.94R HX  95
KINGSTON       MOSUNNY   84  72  65 N3        29.94S
SAN JUAN       MOSUNNY   82  73  74 E7        30.01S
SANTO DOMINGO  MOSUNNY   82  73  74 E5        29.97S
ST. CROIX      SUNNY     86  73  66 E14       30.02S HX  93
ST. KITTS      MOSUNNY   86  73  66 E12       30.00S HX  93
ST. MAARTEN    MOSUNNY   82  73  74 SE10      30.03R
ST. THOMAS     MOSUNNY   84  75  74 SE14      30.01S HX  92

$$




USA.gov is the U.S. government's official web portal to all federal, state and local government web resources and services.